�������l�o���
Date,Time,MP-1(��Sv/h),MP-2(��Sv/h),MP-3(��Sv/h),MP-4(��Sv/h),MP-5(��Sv/h),MP-6(��Sv/h),MP-7(��Sv/h),����,����(m/s),���J
2023/04/30,00:00,0.150,0.136,0.216,0.211,0.213,0.120,0.078,��,6.9,�L
2023/04/30,00:10,0.150,0.136,0.217,0.214,0.212,0.121,0.078,��,7.1,�L
2023/04/30,00:20,0.150,0.138,0.216,0.213,0.213,0.121,0.078,��,7.9,�L
2023/04/30,00:30,0.150,0.136,0.217,0.214,0.213,0.121,0.078,��,8.8,�L
2023/04/30,00:40,0.151,0.137,0.217,0.213,0.214,0.122,0.078,��,7.6,�L
2023/04/30,00:50,0.151,0.137,0.217,0.214,0.213,0.122,0.079,��,6.7,�L
2023/04/30,01:00,0.151,0.138,0.218,0.214,0.214,0.122,0.079,��,6.8,�L
2023/04/30,01:10,0.151,0.138,0.218,0.215,0.214,0.123,0.079,��,8.2,�L
2023/04/30,01:20,-,-,-,-,-,-,-,-,-,-
2023/04/30,01:30,0.152,0.138,0.218,0.215,0.213,0.123,0.080,��,8.8,�L
2023/04/30,01:40,0.151,0.138,0.219,0.215,0.214,0.123,0.080,��,10.1,�L
2023/04/30,01:50,0.152,0.139,0.218,0.214,0.214,0.123,0.081,��,10.6,�L
2023/04/30,02:00,0.151,0.137,0.218,0.216,0.213,0.122,0.080,��,9.2,�L
2023/04/30,02:10,0.151,0.138,0.219,0.213,0.215,0.122,0.079,��,10.0,�L
2023/04/30,02:20,0.150,0.137,0.216,0.214,0.212,0.123,0.079,��,10.3,�L
2023/04/30,02:30,0.151,0.138,0.218,0.214,0.214,0.123,0.079,��,9.2,�L
2023/04/30,02:40,0.152,0.138,0.217,0.215,0.214,0.124,0.080,��쐼,9.8,�L
2023/04/30,02:50,0.153,0.139,0.221,0.217,0.215,0.124,0.081,��,10.1,�L
2023/04/30,03:00,0.154,0.140,0.219,0.217,0.216,0.125,0.083,��,10.7,�L
2023/04/30,03:10,0.153,0.141,0.221,0.217,0.216,0.126,0.082,��,9.6,�L
2023/04/30,03:20,0.151,0.140,0.221,0.216,0.214,0.125,0.081,��,9.2,�L
2023/04/30,03:30,0.152,0.139,0.219,0.216,0.214,0.125,0.081,��,9.8,�L
2023/04/30,03:40,0.151,0.138,0.217,0.214,0.213,0.122,0.080,��,10.1,�L
2023/04/30,03:50,0.151,0.138,0.215,0.213,0.214,0.122,0.080,��,9.5,�L
2023/04/30,04:00,0.150,0.137,0.217,0.212,0.213,0.122,0.079,��,10.0,��
2023/04/30,04:10,0.149,0.136,0.215,0.213,0.213,0.122,0.079,��,10.1,�L
2023/04/30,04:20,0.150,0.137,0.215,0.212,0.211,0.120,0.078,��,10.0,�L
2023/04/30,04:30,0.149,0.136,0.216,0.212,0.212,0.121,0.078,��,9.3,�L
2023/04/30,04:40,0.151,0.137,0.215,0.211,0.210,0.121,0.078,��,10.7,�L
2023/04/30,04:50,0.149,0.137,0.216,0.213,0.213,0.121,0.079,��,10.7,�L
2023/04/30,05:00,0.150,0.137,0.216,0.212,0.210,0.120,0.077,��,10.3,�L
2023/04/30,05:10,0.149,0.137,0.217,0.212,0.212,0.121,0.078,��,8.3,�L
2023/04/30,05:20,0.151,0.137,0.216,0.213,0.212,0.122,0.078,��,7.9,�L
2023/04/30,05:30,0.151,0.137,0.216,0.212,0.212,0.121,0.079,��,7.7,�L
2023/04/30,05:40,0.151,0.137,0.215,0.213,0.213,0.122,0.079,��,7.0,�L
2023/04/30,05:50,0.151,0.137,0.217,0.212,0.212,0.122,0.078,��쓌,6.5,�L
2023/04/30,06:00,0.151,0.137,0.215,0.213,0.212,0.121,0.078,��,7.3,�L
2023/04/30,06:10,0.150,0.137,0.216,0.211,0.211,0.122,0.078,��쓌,7.8,�L
2023/04/30,06:20,0.150,0.137,0.215,0.213,0.211,0.121,0.079,��쓌,7.1,�L
2023/04/30,06:30,0.150,0.137,0.214,0.212,0.212,0.122,0.078,��쓌,7.2,�L
2023/04/30,06:40,0.151,0.137,0.215,0.213,0.212,0.121,0.079,��쓌,7.1,�L
2023/04/30,06:50,0.150,0.137,0.214,0.211,0.212,0.121,0.079,��쓌,7.7,�L
2023/04/30,07:00,0.151,0.137,0.215,0.212,0.212,0.121,0.079,��쓌,6.7,�L
2023/04/30,07:10,0.149,0.136,0.214,0.210,0.211,0.122,0.078,��,6.5,�L
2023/04/30,07:20,0.149,0.137,0.215,0.212,0.211,0.122,0.079,��,5.8,�L
2023/04/30,07:30,0.149,0.136,0.213,0.209,0.211,0.122,0.079,��,6.3,�L
2023/04/30,07:40,0.151,0.137,0.214,0.211,0.212,0.121,0.079,��,5.8,�L
2023/04/30,07:50,0.150,0.136,0.214,0.210,0.212,0.122,0.079,��,7.2,�L
2023/04/30,08:00,0.150,0.136,0.214,0.212,0.211,0.121,0.079,��,5.1,�L
2023/04/30,08:10,0.149,0.136,0.213,0.209,0.211,0.122,0.079,��,5.5,�L
2023/04/30,08:20,0.150,0.137,0.214,0.211,0.212,0.121,0.079,��쐼,5.5,�L
2023/04/30,08:30,0.149,0.136,0.211,0.209,0.210,0.122,0.078,��쐼,5.4,�L
2023/04/30,08:40,0.150,0.136,0.213,0.210,0.210,0.122,0.079,�쐼,3.4,�L
2023/04/30,08:50,0.149,0.137,0.213,0.209,0.213,0.122,0.079,��,2.9,�L
2023/04/30,09:00,0.151,0.136,0.213,0.210,0.209,0.123,0.080,���k��,2.3,�L
2023/04/30,09:10,0.150,0.138,0.212,0.210,0.211,0.122,0.080,��쐼,1.2,�L
2023/04/30,09:20,0.150,0.137,0.214,0.209,0.210,0.122,0.080,�쐼,2.2,�L
2023/04/30,09:30,0.151,0.137,0.213,0.210,0.211,0.121,0.080,��쐼,1.8,�L
2023/04/30,09:40,0.148,0.136,0.212,0.209,0.211,0.122,0.080,�쐼,2.4,�L
2023/04/30,09:50,0.149,0.136,0.212,0.210,0.210,0.122,0.079,�쐼,3.2,�L
2023/04/30,10:00,0.149,0.136,0.211,0.209,0.212,0.121,0.078,���쐼,3.6,�L
2023/04/30,10:10,0.149,0.136,0.212,0.209,0.209,0.121,0.079,�쐼,3.0,�L
2023/04/30,10:20,0.149,0.136,0.212,0.209,0.213,0.121,0.079,���쐼,1.9,�L
2023/04/30,10:30,0.148,0.136,0.214,0.210,0.210,0.122,0.079,���쐼,3.8,�L
2023/04/30,10:40,0.150,0.135,0.212,0.208,0.211,0.122,0.079,��,3.1,�L
2023/04/30,10:50,0.148,0.135,0.212,0.208,0.210,0.122,0.080,��,0.8,�L
2023/04/30,11:00,0.150,0.136,0.210,0.208,0.208,0.122,0.079,��,2.4,�L
2023/04/30,11:10,0.149,0.135,0.209,0.204,0.210,0.122,0.082,���쐼,1.8,�L
2023/04/30,11:20,0.151,0.138,0.210,0.208,0.209,0.122,0.082,��쓌,2.2,�L
2023/04/30,11:30,0.150,0.137,0.211,0.206,0.213,0.122,0.083,��쓌,2.4,�L
2023/04/30,11:40,0.150,0.138,0.210,0.208,0.210,0.123,0.081,��,2.3,�L
2023/04/30,11:50,0.150,0.136,0.212,0.207,0.212,0.121,0.081,���쐼,3.2,�L
2023/04/30,12:00,0.147,0.136,0.210,0.208,0.210,0.119,0.080,���k��,10.4,�L
2023/04/30,12:10,0.149,0.135,0.211,0.205,0.210,0.120,0.080,���k��,8.2,�L
2023/04/30,12:20,0.147,0.135,0.209,0.206,0.210,0.119,0.078,���k��,8.2,��
2023/04/30,12:30,0.147,0.134,0.208,0.205,0.207,0.119,0.079,���k��,5.8,�L
2023/04/30,12:40,0.146,0.134,0.208,0.206,0.209,0.118,0.078,���k��,5.0,�L
2023/04/30,12:50,0.147,0.134,0.208,0.206,0.209,0.118,0.078,�k��,5.8,�L
2023/04/30,13:00,0.148,0.135,0.209,0.206,0.211,0.119,0.078,�k��,4.3,�L
2023/04/30,13:10,0.149,0.134,0.208,0.207,0.210,0.119,0.078,���k��,5.6,�L
2023/04/30,13:20,0.149,0.136,0.210,0.205,0.211,0.119,0.078,�k��,5.1,�L
2023/04/30,13:30,0.148,0.134,0.207,0.206,0.209,0.118,0.078,�k��,5.2,��
2023/04/30,13:40,0.148,0.134,0.208,0.204,0.209,0.119,0.077,�k��,4.9,��
2023/04/30,13:50,0.146,0.133,0.207,0.205,0.210,0.118,0.077,�k��,3.7,��
2023/04/30,14:00,0.147,0.134,0.209,0.203,0.208,0.118,0.076,�k��,7.3,��
2023/04/30,14:10,0.145,0.132,0.206,0.205,0.210,0.117,0.075,���k��,7.7,��
2023/04/30,14:20,0.146,0.133,0.209,0.203,0.207,0.117,0.075,���k��,8.6,��
2023/04/30,14:30,0.145,0.133,0.207,0.205,0.210,0.116,0.076,���k��,6.0,��
2023/04/30,14:40,0.146,0.133,0.207,0.203,0.207,0.117,0.076,���k��,5.3,��
2023/04/30,14:50,0.145,0.132,0.206,0.205,0.209,0.116,0.076,���k��,3.3,��
2023/04/30,15:00,0.145,0.133,0.208,0.203,0.209,0.117,0.075,���k��,5.7,�L
2023/04/30,15:10,0.147,0.133,0.207,0.205,0.209,0.118,0.076,���k��,7.4,�L
2023/04/30,15:20,0.147,0.136,0.210,0.206,0.210,0.119,0.078,���k��,5.7,�L
2023/04/30,15:30,0.149,0.134,0.209,0.208,0.211,0.120,0.079,���k��,5.2,�L
2023/04/30,15:40,0.148,0.137,0.212,0.207,0.213,0.120,0.079,���k��,6.4,�L
2023/04/30,15:50,0.150,0.136,0.211,0.210,0.211,0.120,0.080,���k��,4.7,�L
2023/04/30,16:00,0.150,0.137,0.212,0.207,0.214,0.121,0.080,���k��,5.9,�L
2023/04/30,16:10,0.150,0.136,0.213,0.210,0.211,0.121,0.079,���k��,6.6,�L
2023/04/30,16:20,0.149,0.136,0.211,0.208,0.213,0.122,0.080,�k��,3.2,�L
2023/04/30,16:30,0.150,0.137,0.211,0.210,0.212,0.121,0.079,���k��,4.4,�L
2023/04/30,16:40,0.150,0.136,0.212,0.207,0.214,0.120,0.079,���k��,2.4,�L
2023/04/30,16:50,0.149,0.136,0.212,0.209,0.210,0.121,0.079,���k��,2.4,�L
2023/04/30,17:00,0.148,0.136,0.211,0.208,0.213,0.121,0.079,�k��,2.2,��
2023/04/30,17:10,0.149,0.135,0.210,0.207,0.210,0.119,0.078,�k�k��,5.2,�L
2023/04/30,17:20,0.147,0.135,0.209,0.206,0.209,0.119,0.078,�k�k��,4.3,�L
2023/04/30,17:30,0.147,0.135,0.209,0.206,0.208,0.118,0.077,�k��,6.1,�L
2023/04/30,17:40,0.147,0.134,0.211,0.206,0.211,0.119,0.077,�k��,7.0,�L
2023/04/30,17:50,0.147,0.134,0.208,0.206,0.208,0.119,0.079,�k��,5.9,�L
2023/04/30,18:00,0.146,0.134,0.209,0.205,0.210,0.119,0.077,�k��,5.8,��
2023/04/30,18:10,0.147,0.133,0.208,0.205,0.208,0.119,0.077,�k��,6.5,��
2023/04/30,18:20,0.146,0.133,0.208,0.204,0.210,0.117,0.077,���k��,4.9,��
2023/04/30,18:30,0.146,0.133,0.206,0.204,0.208,0.117,0.076,�k��,5.8,��
2023/04/30,18:40,0.145,0.133,0.207,0.205,0.210,0.117,0.076,���k��,5.0,��
2023/04/30,18:50,0.147,0.133,0.208,0.203,0.208,0.117,0.076,���k��,5.5,��
2023/04/30,19:00,0.144,0.132,0.207,0.204,0.210,0.117,0.076,���k��,3.8,��
2023/04/30,19:10,0.146,0.133,0.208,0.203,0.207,0.117,0.076,�k��,5.0,��
2023/04/30,19:20,0.145,0.133,0.208,0.206,0.210,0.117,0.075,�k�k��,4.2,��
2023/04/30,19:30,0.146,0.132,0.208,0.204,0.208,0.117,0.075,�k�k��,4.2,��
2023/04/30,19:40,0.145,0.133,0.207,0.205,0.210,0.116,0.075,�k��,4.5,��
2023/04/30,19:50,0.147,0.132,0.208,0.203,0.208,0.117,0.076,�k��,5.9,��
2023/04/30,20:00,0.145,0.132,0.207,0.204,0.210,0.116,0.075,�k�k��,5.1,��
2023/04/30,20:10,0.146,0.132,0.207,0.205,0.207,0.117,0.074,�k�k��,4.5,��
2023/04/30,20:20,0.146,0.132,0.207,0.204,0.209,0.116,0.075,���k��,4.0,��
2023/04/30,20:30,0.147,0.132,0.207,0.204,0.207,0.116,0.075,�k��,4.0,��
2023/04/30,20:40,0.145,0.132,0.209,0.204,0.210,0.117,0.075,�k�k��,4.4,��
2023/04/30,20:50,0.146,0.133,0.208,0.205,0.208,0.117,0.075,���k��,4.6,��
2023/04/30,21:00,0.145,0.132,0.208,0.204,0.209,0.118,0.075,�k��,5.1,��
2023/04/30,21:10,0.146,0.133,0.207,0.204,0.208,0.117,0.075,�k�k��,3.2,��
2023/04/30,21:20,0.145,0.131,0.207,0.205,0.210,0.117,0.075,�k�k��,3.9,��
2023/04/30,21:30,0.146,0.133,0.207,0.204,0.208,0.117,0.075,�k��,2.9,��
2023/04/30,21:40,0.145,0.132,0.207,0.204,0.210,0.117,0.075,�k��,4.0,��
2023/04/30,21:50,0.146,0.132,0.207,0.203,0.207,0.117,0.075,���k��,2.8,��
2023/04/30,22:00,0.146,0.133,0.207,0.205,0.209,0.117,0.075,�k��,3.8,��
2023/04/30,22:10,0.146,0.133,0.208,0.204,0.209,0.117,0.075,�k��,5.1,��
2023/04/30,22:20,0.145,0.133,0.210,0.205,0.209,0.117,0.075,�k��,4.2,��
2023/04/30,22:30,0.146,0.134,0.208,0.204,0.209,0.117,0.076,���k��,5.8,��
2023/04/30,22:40,0.146,0.132,0.208,0.204,0.209,0.117,0.075,���k��,4.3,��
2023/04/30,22:50,0.146,0.133,0.208,0.204,0.208,0.117,0.075,�k��,5.7,��
2023/04/30,23:00,0.146,0.131,0.207,0.204,0.209,0.118,0.075,�k��,4.8,��
2023/04/30,23:10,0.145,0.132,0.208,0.206,0.209,0.117,0.075,�k��,4.7,��
2023/04/30,23:20,0.147,0.133,0.207,0.204,0.207,0.117,0.076,�k��,4.3,��
2023/04/30,23:30,0.146,0.132,0.207,0.205,0.211,0.117,0.075,�k��,4.7,��
2023/04/30,23:40,0.147,0.133,0.209,0.205,0.208,0.117,0.075,�k��,3.7,��
2023/04/30,23:50,0.145,0.132,0.208,0.204,0.210,0.117,0.075,�k�k��,4.4,��
